Weather Service Report


127 
ASUS42 KCAE 281310
RWRCAE
REGIONAL WEATHER ROUNDUP
NATIONAL WEATHER SERVICE COLUMBIA SC
900 AM EDT TUE JUL 28 2015

NOTE: "FAIR" INDICATES FEW OR NO CLOUDS BELOW 12,000 FEET WITH NO
SIGNIFICANT WEATHER AND/OR OBSTRUCTIONS TO VISIBILITY.

NOT ALL STATIONS ARE QUALITY CONTROLLED BY THE NATIONAL 
WEATHER SERVICE. USE DATA WITH CAUTION...ESPECIALLY 
DEWPOINT OBSERVATIONS.

SCZ001>056-GAZ040-063>065-077-281400-
...UPSTATE SOUTH CAROLINA...
  
CITY           SKY/WX    TMP DP  RH WIND       PRES   REMARKS
ANDERSON       MOSUNNY   80  72  76 E6        30.04R                  
SPARTANBURG      N/A     79  73  83 SE3       30.03S                  
CLEMSON        MOSUNNY   80  71  74 VRB5      30.05R                  
GREENVILLE     MOSUNNY   79  70  74 CALM      30.05S                  
GREENWOOD      SUNNY     80  73  79 CALM      30.05R                  
GREER          SUNNY     80  72  76 CALM      30.03S                  
ROCK HILL      CLOUDY    78  74  87 CALM      30.05R                  
CHESTER        CLOUDY    79  77  94 CALM      30.05R                  
LAURENS        PTSUNNY   77  77 100 CALM      30.03S                  


...CENTRAL SOUTH CAROLINA...
  
CITY           SKY/WX    TMP DP  RH WIND       PRES   REMARKS
COLUMBIA APT   CLOUDY    82  74  76 SE5       30.01R                  
COLUMBIA OWENS PTSUNNY   83  74  74 VRB5      30.02R                  
DARLINGTON     SUNNY     81  72  74 E5        30.03R                  
FLORENCE       SUNNY     80  73  79 E7        30.01R                  
MCENTIRE ANGB  PTSUNNY   82  75  79 SE8       30.01S                  
ORANGEBURG     MOSUNNY   83  75  77 E5        30.01S                  
SUMTER SHAW    MOSUNNY   83  74  73 E5        29.99S                  
NEWBERRY       SUNNY     72  70  94 CALM      30.06R                  
AIKEN          FAIR      79  72  78 E6        30.06R                  
BARNWELL       FAIR      81  77  89 E5        30.02R                  
MANNING        FAIR      79  73  83 CALM      30.00S                  
CAMDEN         FAIR      81  73  78 E6        30.02S                  
LANCASTER      MOSUNNY   79  79 100 CALM      30.04R                  
WINNSBORO      MOSUNNY   79  77  94 E3        30.03R                  


...EASTERN AND COASTAL SOUTH CAROLINA...
  
CITY           SKY/WX    TMP DP  RH WIND       PRES   REMARKS
MYRTLE BEACH   SUNNY    N/A  72   0 NE6       30.01R                  
N MYRTLE BCH   SUNNY     81  73  76 NE6       29.99S                  
CONWAY         FAIR      81  73  78 NE8       30.00S                  
MARION         FAIR      79  70  73 E7        30.01R                  
HARTSVILLE     FAIR      81  72  74 E6        30.02R                  
FLORENCE       SUNNY     80  73  79 E7        30.01R                  
DARLINGTON     SUNNY     81  72  74 E5        30.03R                  
CHARLESTON APT MOSUNNY   82  76  81 VRB6      29.99R                  
MOUNT PLEASANT FAIR      81  77  89 N3        29.98S                  
WALTERBORO     MOSUNNY   82  77  83 E7        30.01R                  
BEAUFORT       MOSUNNY   82  77  84 NE5       29.99S                  


...EASTERN GEORGIA...
  
CITY           SKY/WX    TMP DP  RH WIND       PRES   REMARKS
AUGUSTA BUSH F MOSUNNY   80  75  84 SE3       30.00R                  
AUGUSTA DANIEL PTSUNNY   81  75  82 S3        30.03R                  
THOMSON        PTSUNNY   83  77  82 SE3       30.06R                  
WASHINGTON     FAIR      82  77  83 CALM      30.03R                  
CLAXTON        PTSUNNY   79  77  94 NE3       30.00S FOG              
SYLVANIA       MOSUNNY   82  79  91 CALM      30.02R                  
STATESBORO     CLOUDY    78  32  18 E3        30.00S                  
SAVANNAH       PTSUNNY   79  77  94 N5        29.99S                  


...SOUTHERN NORTH CAROLINA...
  
CITY           SKY/WX    TMP DP  RH WIND       PRES   REMARKS
CHARLOTTE      CLOUDY    79  72  79 S6        30.05R                  
MONROE         CLOUDY    79  73  82 CALM      30.04R                  
WADESBORO      MOSUNNY   77  74  90 CALM      30.02S                  
ROCKINGHAM     SUNNY     78  73  85 CALM      30.03R                  
RUTHERFORDTON  PTSUNNY   75  72  91 CALM      30.06S                  
ASHEVILLE      PTSUNNY   72  68  87 W3        30.12R                  

$$

Return to Home page


Western Regional Climate Center, wrcc@dri.edu